GFSFLT1_925_temp_042.txt.gz
Temp
26 25 25 24 21 19 17 15 14 14 15 15 15 15 15 15 14 13 13 13 13 13 13 12 13 13 12 12 11 11 11 11
25 25 25 24 19 17 16 15 14 13 13 13 13 13 13 13 13 13 13 13 13 13 13 13 12 12 12 12 11 11 10 10
24 24 24 22 19 18 16 15 14 14 15 15 14 14 13 14 13 14 14 14 13 13 12 12 12 12 11 11 11 10 10 10
24 24 23 23 19 18 16 15 15 15 17 16 15 15 15 15 14 14 14 13 13 13 12 12 11 11 11 11 10 10 9 9
25 24 23 22 19 18 17 17 17 17 17 17 17 17 16 16 15 14 13 13 13 13 12 12 11 11 10 10 10 10 9 9
25 24 22 21 19 18 18 18 19 18 18 18 17 18 17 16 16 15 14 13 13 13 12 12 11 10 10 9 9 9 9 8
26 22 21 20 19 19 20 19 19 18 18 18 18 17 17 16 16 15 14 14 13 13 12 11 10 9 9 9 8 8 8 8
25 23 22 21 20 20 20 20 19 18 18 17 17 16 15 15 15 14 14 13 13 11 10 9 9 9 8 8 8 8 8 8
24 23 22 21 20 20 20 20 19 18 17 17 16 15 14 14 14 13 12 12 11 10 9 9 8 8 7 7 7 7 7 7
23 23 22 21 20 19 19 19 18 17 17 16 14 14 13 13 12 12 11 10 10 9 8 8 7 7 7 6 6 6 6 5
23 23 22 21 19 19 19 19 17 17 16 14 13 13 12 12 11 11 10 10 9 8 8 7 7 6 6 5 5 4 4 4
23 23 22 21 20 19 18 18 17 16 15 13 13 12 12 11 11 10 10 9 8 7 7 7 6 6 5 4 4 4 3 3
24 23 22 21 20 19 18 18 16 15 14 12 12 11 11 11 11 10 9 8 7 7 6 6 6 5 4 3 3 3 2 2
24 23 22 21 20 18 17 17 15 14 13 11 11 11 12 11 11 10 9 8 7 6 6 6 5 4 3 3 3 3 3 3
25 23 22 20 19 18 17 15 15 13 12 12 12 12 12 11 10 9 8 7 6 6 5 5 5 4 3 3 3 2 2 2
25 23 21 20 19 18 16 15 13 12 12 13 13 12 11 10 9 8 7 6 6 5 5 5 4 3 3 3 2 1 1 1
24 23 22 20 19 17 16 14 13 12 13 12 11 10 10 9 8 7 6 6 6 6 5 5 4 3 2 1 1 1 -0 -0
23 22 21 20 19 17 15 14 13 12 11 11 10 9 8 8 7 7 6 6 5 5 4 4 3 3 2 1 0 -0 -1 -1
22 21 21 20 18 16 15 13 12 11 10 10 9 9 8 7 7 7 6 6 5 4 4 3 2 2 2 0 -1 -1 -2 -1

GFSFLT1_925_temp_048.txt.gz
Temp
19 19 18 18 18 18 18 17 17 17 16 15 15 15 15 15 15 14 14 14 14 14 13 13 13 12 12 11 11 10 10 10
20 19 18 17 17 17 18 17 17 16 16 15 15 15 14 14 14 14 13 13 13 13 13 13 12 12 11 11 10 10 10 9
20 19 18 16 16 16 17 17 16 16 17 17 16 15 14 14 13 13 13 13 13 13 13 12 12 12 11 10 10 9 9 9
19 18 17 15 14 16 17 17 17 16 16 16 15 14 13 12 12 13 13 13 13 13 13 13 12 11 10 10 9 9 8 8
19 18 16 15 14 15 15 16 16 16 16 15 15 14 12 13 13 13 13 13 13 13 13 12 11 10 10 10 9 8 8 7
18 18 16 15 14 14 15 16 16 16 15 14 15 14 14 14 14 13 13 13 13 12 12 11 10 10 9 9 8 8 7 7
18 17 16 15 14 15 15 16 16 15 14 15 15 15 15 14 13 13 13 13 12 12 11 11 10 10 9 8 7 7 6 6
16 16 16 14 14 14 16 15 15 15 15 15 15 16 15 15 14 13 12 11 11 11 10 10 9 8 8 7 7 6 6 5
18 16 16 15 15 14 14 15 15 16 16 16 16 16 15 15 14 13 12 11 10 10 9 8 8 7 7 7 6 5 5 4
17 18 16 16 15 15 15 15 16 17 16 16 16 15 15 14 13 12 11 10 9 8 8 8 7 7 7 6 5 5 4 4
15 16 16 16 16 16 16 17 17 16 16 16 15 14 14 13 12 11 10 9 8 9 7 7 7 7 6 6 5 4 3 3
16 15 17 18 18 17 17 17 17 16 16 15 14 13 12 11 11 10 9 8 8 7 8 7 7 6 6 5 5 4 3 2
16 16 16 16 17 17 18 17 17 16 15 14 13 12 11 10 9 8 8 8 7 7 7 7 6 6 5 5 4 4 3 2
17 16 16 16 16 17 17 17 17 16 14 13 12 11 10 9 9 9 8 8 7 7 6 6 6 5 5 4 4 3 3 2
17 16 17 17 16 15 15 15 14 12 12 11 11 11 10 10 9 9 8 7 7 6 6 6 5 5 4 4 4 3 3 2
17 16 14 16 16 16 14 13 12 12 11 11 11 11 10 10 9 7 7 7 6 6 6 5 5 5 4 4 3 3 2 1
17 15 14 14 14 13 12 11 11 11 11 11 10 9 8 8 8 7 7 6 6 6 6 5 5 5 4 3 3 2 2 1
15 14 14 13 13 12 10 10 10 11 10 9 8 8 7 7 7 6 6 5 5 6 5 5 5 4 4 3 2 2 1 0
14 14 13 13 12 11 10 11 10 9 8 7 7 6 6 5 4 5 3 4 5 4 5 4 4 4 3 3 2 1 -0 -1

GFSFLT1_925_temp_054.txt.gz
Temp
16 16 16 16 16 16 16 16 16 16 16 15 15 15 14 14 15 15 15 15 15 14 14 13 13 13 12 11 11 10 9 9
16 16 16 16 16 16 16 16 16 16 15 14 14 14 14 14 14 14 15 15 14 14 14 13 12 12 12 11 10 10 8 8
16 16 16 16 16 16 16 16 16 16 16 15 15 14 14 13 13 13 14 14 14 13 13 13 13 12 11 11 10 9 8 7
16 16 16 16 17 16 16 16 16 16 16 15 14 13 13 12 13 13 13 13 13 13 13 13 12 11 11 10 9 9 8 7
16 16 16 16 16 16 16 16 16 16 15 15 14 14 13 13 14 14 13 13 13 12 12 12 11 11 10 9 8 8 7 7
17 17 17 16 15 15 16 16 16 15 15 14 14 14 13 14 13 13 13 12 12 12 11 11 10 9 9 8 8 7 7 6
17 18 17 16 16 15 15 15 15 14 14 14 14 13 13 13 13 12 12 11 11 11 11 10 9 9 8 7 7 7 6 6
16 15 15 15 15 14 15 14 13 14 14 13 13 13 13 13 13 12 11 11 11 11 10 9 9 8 7 6 7 7 6 5
17 16 16 14 14 14 14 13 13 13 12 13 13 12 13 13 13 13 12 12 11 10 8 8 7 7 6 7 7 6 5 5
16 16 16 14 14 13 14 13 13 13 13 14 12 13 13 13 13 13 13 11 10 8 8 7 6 6 6 6 6 6 5 4
14 14 15 15 14 14 13 13 13 13 13 13 13 14 13 13 13 12 11 10 9 7 7 7 6 6 6 5 5 5 5 4
13 13 14 14 14 14 14 13 13 13 13 14 13 14 14 13 12 11 10 9 7 7 8 6 6 6 5 5 5 4 4 4
13 13 14 14 14 14 13 13 13 13 13 13 13 13 12 11 10 10 9 8 7 8 6 6 5 5 5 4 5 4 4 3
13 12 13 13 13 13 13 13 13 13 13 12 11 10 9 8 8 7 8 8 7 6 6 5 5 5 5 5 4 4 4 3
13 12 12 13 13 13 13 13 13 12 11 10 9 8 7 8 8 8 8 7 6 5 5 5 5 5 5 5 4 4 4 3
14 13 12 13 13 12 12 12 11 10 9 8 7 8 8 8 8 7 6 6 5 5 5 4 4 5 5 5 5 4 4 3
13 14 13 12 11 10 10 10 10 9 9 7 7 8 8 7 6 6 5 5 5 5 4 4 3 4 5 4 4 4 3 3
9 9 9 10 10 9 8 8 8 8 8 7 8 7 6 6 5 5 5 5 4 3 3 3 4 4 4 4 4 3 3 3
6 6 6 7 7 7 7 7 7 7 6 6 5 5 5 5 5 5 4 4 3 3 3 4 4 4 4 3 3 3 3 2

GFSFLT1_925_temp_057.txt.gz
Temp
16 15 15 15 15 15 15 15 15 15 16 15 15 15 15 15 15 15 15 14 14 14 14 14 13 13 12 12 12 11 10 10
17 16 16 16 15 15 15 15 15 15 15 14 14 14 14 14 15 14 14 14 14 14 14 13 13 13 12 12 11 10 9 9
17 16 16 16 16 15 15 16 16 15 15 15 14 14 14 14 14 14 14 14 14 14 14 13 13 12 12 11 10 9 8 8
18 17 16 16 15 15 15 15 16 15 14 15 15 14 14 13 13 13 13 13 13 13 13 13 12 12 11 11 10 9 9 7
19 18 17 16 16 15 16 16 15 15 15 15 14 14 13 12 11 12 12 12 13 13 13 12 12 11 11 10 10 9 8 8
19 19 18 17 16 15 15 15 15 15 15 14 14 13 13 13 12 13 12 12 12 12 12 11 11 11 10 9 9 8 7 7
20 19 18 18 15 15 15 14 14 14 13 13 13 12 12 12 12 12 12 11 11 11 11 11 11 10 9 8 7 7 7 6
20 19 18 18 16 15 15 15 14 13 13 12 14 14 12 12 13 13 11 9 10 11 11 11 10 9 8 7 6 5 5 6
20 20 19 18 16 15 15 15 15 13 12 12 15 15 12 12 13 13 12 11 10 11 10 9 9 8 7 6 5 5 5 5
20 20 19 18 16 16 15 15 14 13 12 12 14 14 12 12 13 12 11 10 9 10 10 8 7 7 7 6 5 5 6 5
18 19 18 17 16 16 14 14 14 14 13 12 12 13 12 12 12 11 10 9 9 10 8 7 7 7 6 5 5 5 5 4
17 18 17 17 15 15 14 14 14 14 13 12 12 12 11 12 12 11 11 10 10 7 7 6 6 6 5 5 5 5 4 4
18 17 16 16 15 15 15 14 14 14 12 12 12 12 12 11 11 11 10 9 6 7 7 6 6 4 4 4 4 4 3 3
18 17 17 16 15 15 14 13 13 13 12 12 12 11 10 9 8 8 7 6 6 6 6 5 4 4 4 4 4 4 4 4
18 17 16 15 14 13 13 12 12 12 11 11 10 8 7 7 7 7 7 5 6 5 5 4 4 4 4 4 5 5 4 3
16 16 16 15 14 12 11 10 11 10 10 8 7 7 7 6 5 5 6 6 6 5 4 4 4 4 3 3 4 4 3 3
13 14 14 13 12 11 9 9 8 8 8 7 6 6 5 5 6 6 5 5 4 4 4 4 4 3 3 3 3 3 3 3
11 10 10 10 9 8 8 7 7 7 7 6 5 6 6 5 5 4 4 3 3 3 4 3 2 3 3 4 4 3 2 3
8 8 7 7 7 6 6 6 6 5 5 5 5 5 4 4 4 3 3 3 3 3 3 2 3 4 4 3 3 3 2 2

GFSFLT1_925_temp_063.txt.gz
Temp
22 21 21 20 20 19 19 18 18 18 18 18 18 18 18 19 18 19 17 16 15 15 15 15 14 15 15 15 15 15 16 16
23 22 21 21 20 19 19 19 18 18 19 18 19 19 18 18 19 19 17 16 15 14 16 15 13 15 15 15 14 15 15 14
24 22 21 21 20 20 20 19 19 19 19 19 20 20 19 19 19 19 16 15 14 14 15 15 14 15 15 14 14 14 15 14
25 23 22 21 21 20 21 21 20 20 20 20 20 20 20 19 19 19 16 15 15 14 14 15 14 14 14 13 13 14 15 13
26 24 23 22 22 21 21 21 21 21 20 21 20 20 20 20 19 19 16 15 14 14 14 14 13 13 14 13 13 14 14 14
27 26 24 23 22 22 21 21 21 21 20 20 20 20 20 20 19 19 15 15 14 14 14 13 12 12 13 13 13 13 13 14
28 27 26 24 23 22 21 21 21 21 21 20 20 20 19 20 20 18 16 15 14 13 13 11 12 12 12 13 13 12 11 9
28 28 27 26 24 23 22 21 21 21 21 20 19 19 19 19 19 17 16 15 14 13 12 11 11 11 11 11 12 10 8 9
29 28 28 27 25 24 23 22 21 21 20 20 20 19 19 18 18 15 15 15 14 14 13 11 10 10 10 11 9 8 7 7
29 29 28 27 26 25 23 23 22 22 21 20 19 19 18 18 16 15 14 14 14 13 11 10 9 9 10 9 8 6 6 6
29 29 28 27 27 26 24 23 22 22 22 20 18 17 16 16 15 14 13 12 13 11 10 9 8 8 9 7 5 5 5 4
27 28 28 28 27 26 24 23 22 22 22 20 18 16 14 14 14 13 12 12 11 9 9 8 7 8 6 4 5 5 4 4
28 27 26 26 26 26 25 23 22 22 22 21 16 14 13 13 13 12 12 11 10 9 9 7 7 6 5 4 4 4 4 3
28 27 26 25 24 24 23 22 22 22 21 20 15 13 13 12 12 11 10 9 8 8 7 5 5 4 5 5 5 5 4 4
28 27 26 25 24 23 22 20 18 16 14 12 12 11 11 10 9 8 8 7 6 5 5 5 5 5 5 5 5 4 4 4
27 27 26 24 22 18 14 12 11 11 10 9 8 8 8 7 6 6 5 5 5 5 5 5 4 5 4 4 4 3 4 4
24 25 25 23 20 16 12 10 9 9 8 7 7 6 6 5 5 5 5 4 4 4 4 5 5 4 4 4 3 2 3 4
22 22 21 19 18 15 13 11 10 9 8 8 8 8 7 7 6 5 5 4 5 5 5 4 4 3 3 3 3 3 4 5
19 19 18 17 16 15 14 13 12 11 11 10 9 9 8 7 7 7 5 4 4 4 4 3 4 4 4 4 3 3 4 4

GFSFLT1_925_temp_069.txt.gz
Temp
13 12 12 12 12 13 13 13 13 14 15 16 16 17 17 17 17 17 17 17 16 16 16 16 16 16 16 16 15 15 15 16
15 14 13 13 13 13 13 13 14 15 15 16 17 17 17 17 17 17 17 17 17 16 16 16 16 16 16 15 15 15 15 16
16 15 15 14 13 14 14 15 15 16 16 16 16 17 17 17 17 17 17 17 17 16 16 16 16 15 15 15 15 15 15 15
17 17 15 15 14 14 14 14 15 15 16 17 17 17 17 17 17 18 17 17 17 16 16 16 15 15 15 15 15 14 14 14
18 17 16 16 15 15 15 16 16 17 18 18 17 17 17 17 17 18 18 18 17 16 16 16 15 15 15 15 15 14 14 13
20 18 17 17 17 16 16 17 18 18 18 17 17 18 18 18 18 18 18 18 17 16 16 16 15 15 14 14 14 14 12 10
20 20 19 18 18 18 18 18 18 18 18 18 18 18 19 19 18 18 18 18 17 17 16 15 15 14 14 14 14 13 11 10
21 20 20 20 18 18 18 18 18 18 18 18 19 19 19 20 20 19 18 16 16 17 16 15 15 14 14 14 13 11 11 10
22 21 20 20 20 19 19 19 19 19 18 18 19 19 20 20 20 19 19 18 17 16 15 15 15 14 13 12 11 10 9 9
23 22 22 21 20 20 19 19 19 20 20 19 18 19 19 19 19 19 19 17 18 17 15 14 14 13 12 11 10 10 9 8
23 23 23 22 21 21 20 20 20 20 20 20 20 19 18 18 18 17 17 16 17 15 13 12 13 12 11 10 10 8 8 7
23 22 23 23 22 21 20 20 20 20 20 20 20 19 19 19 17 16 15 15 14 13 13 13 12 11 10 10 8 8 7 7
24 22 22 22 23 22 21 20 21 20 20 20 20 19 18 18 15 15 14 14 13 13 13 11 10 10 9 8 8 6 5 5
22 22 22 22 23 22 22 21 20 20 19 17 17 16 17 16 14 13 13 13 12 12 12 11 9 8 7 7 7 6 6 6
21 21 21 19 17 13 15 15 19 18 16 12 12 12 13 12 12 12 12 12 11 10 10 9 8 7 6 6 6 5 5 5
22 20 18 15 13 11 11 11 12 12 11 11 10 11 10 10 10 10 10 9 9 8 7 7 6 6 5 6 5 5 4 4
22 19 16 14 12 11 10 9 10 11 10 9 9 9 8 8 8 8 7 7 6 6 6 6 5 5 5 5 5 4 4 4
19 18 16 13 11 11 10 9 8 8 8 8 8 8 7 6 6 6 6 6 5 5 5 5 5 5 5 4 4 3 3 3
16 15 13 12 11 10 10 9 9 8 7 7 6 6 6 6 5 5 5 5 5 5 5 5 5 5 4 4 3 3 2 2

GFSFLT1_925_temp_075.txt.gz
Temp
13 12 12 12 12 12 12 12 12 12 12 13 13 14 15 15 16 16 16 16 16 16 16 16 16 16 16 15 15 15 15 15
13 13 12 12 12 12 12 12 11 11 12 13 14 14 15 15 16 16 16 16 16 16 16 16 16 16 16 15 15 15 15 14
12 11 12 11 11 12 12 11 12 12 13 13 14 15 15 15 16 16 16 16 16 16 16 16 16 16 16 15 15 15 15 14
13 11 11 12 11 12 12 11 12 12 13 13 14 14 15 15 15 16 16 16 16 16 16 16 16 16 16 16 15 15 15 14
13 12 10 11 11 11 12 12 12 12 13 13 14 14 15 15 16 16 16 16 16 16 16 16 16 16 16 16 16 15 15 14
13 13 12 11 11 11 12 12 12 12 12 13 14 14 15 15 16 16 16 16 16 16 16 16 16 15 16 15 15 15 14 14
14 14 13 12 12 12 12 12 12 13 13 14 14 15 15 15 16 16 16 16 17 17 16 16 16 16 15 15 15 14 14 13
14 14 14 13 12 12 12 13 13 13 14 14 14 15 15 16 16 16 16 16 16 17 16 16 16 16 15 15 14 14 13 13
15 15 15 14 13 13 13 13 13 13 14 14 15 15 16 16 16 16 16 16 17 17 16 16 16 16 15 14 13 13 13 13
16 16 15 15 14 14 13 14 14 14 14 14 14 15 15 14 15 15 16 16 16 15 16 17 16 16 15 14 13 13 12 12
17 17 16 15 15 15 14 14 14 14 14 14 14 14 15 14 15 15 16 15 15 14 15 15 15 15 14 13 13 12 12 11
18 17 18 17 16 15 15 15 14 15 15 15 15 15 15 15 15 15 15 15 14 14 14 14 14 14 13 12 12 12 11 10
19 18 18 18 17 17 16 15 15 15 15 16 15 17 16 16 16 16 16 14 14 15 13 14 12 13 12 12 12 11 10 9
19 19 19 18 18 18 17 16 16 16 15 16 15 15 15 15 15 16 15 14 14 15 13 13 12 13 12 12 11 10 9 9
19 19 18 19 19 18 18 17 17 16 16 15 15 16 16 15 16 16 14 14 14 13 12 11 11 11 11 11 9 8 8 7
17 17 15 14 16 18 18 18 17 16 15 15 15 15 13 15 14 13 13 13 12 12 11 10 11 10 9 9 8 7 7 6
17 16 14 13 13 13 14 14 16 16 15 13 12 13 12 13 13 13 12 12 11 10 10 10 9 8 8 8 7 6 5 4
16 17 15 13 12 12 12 11 12 13 11 10 10 11 11 11 11 11 10 9 9 9 8 8 7 7 6 6 6 5 4 4
17 17 12 12 11 10 10 10 11 10 10 9 10 9 9 8 8 8 8 7 7 7 6 6 6 5 5 4 4 4 3 2